FENGYUN 1C DEB, 30327

Orbit data source: Space-Track

FENGYUN 1C DEB, 30327 is space debris in SSO originally from a launch on Mon, 10 May 1999 UTC launched from the Taiyaun Space Center, China (TSC). Fengyun 1C debris stems from the Chinese weather satellite Fengyun-1C, which was intentionally destroyed by a Chinese anti-satellite missile in 2007. This event dramatically increased the amount of space debris, with thousands of trackable fragments posing hazards to satellites and human spaceflight. The Fengyun 1C debris cloud has become a focal point in discussions about space sustainability and the need for international regulations to prevent the creation of new debris.

Loading next visibility...
Identifier
30327, 1999-025AAN
Orbit
SSO
Country
Flag of CNCN / PRC
Related business
Manufacturer
Unknown
Mission
Spacecraft
Bus & Motor
Unknown
Mass
Unknown
Launch date (UTC)
1999-05-10 (26 years ago)
Launch vehicle
Unknown
Launch site
Taiyaun Space Center, China (TSC)
Object type
Payload
Rocket body
Debris
Shape & HBR
Unknown
Radar Cross Section
Small (<0.1 m²)

Expand to show TLE details & history
Last TLE update: 2 days ago

TLE from 2 days ago
0 FENGYUN 1C DEB
1 30327U 99025AAN 25259.71136171  .00004226  00000-0  19752-2 0  9990
2 30327  98.4444 158.3013 0122810  35.1771  21.2878 14.16888358952106
Epoch: 2025-09-16T17:04Z
TLE epoch observation values (Epoch: 2025-09-16T17:04:21.651Z)
Latitude
56.14018°
Longitude
-106.40049°
Altitude
762.809 km
Speed
7.521 km/s
True Right ascension
09h 42m 20s
True Declination
55° 58' 52"
Sunlit
Object was in daylight at epoch
Visualization orbit readout
Latitude
Unknown
Longitude
Unknown
Altitude
Unknown
Speed
Unknown
Apparent Right ascension
Unknown
Apparent Declination
Unknown
Sunlit
N/A
Visualization observer readout
Local Sidereal Time
22:53:21
Azimuth
Unknown
Elevation
Unknown
Doppler factor
Unknown
Orbital elements
Apogee altitude
921.606 km
Perigee altitude
744.484 km
Semi-major axis
7,211.182 km
Eccentricity
0.01228
Inclination
98.4444°
RAAN
158.3013°
Arg. of periapsis
35.1771°
True anomaly
21.80613°
Mean anomaly
21.2878°
Eccentric anomaly
21.54622°
Mean motion
3.54432 °/min
Orbital period
101.57 mins
BSTAR
0.0019752
Loading maneuver chart data...
Computing Atmospheric mass density...
Loading historical data...
Loading historical data...
Loading historical data...
Loading historical data...
Loading historical data...
Loading historical data...
Loading historical data...

Documentation

Showing up to 5 results
|